Powrót do katalogu

STARLINK-5400

AktywnyŁącznośćVLEO
NORAD 54861·PAYLOAD·🇺🇸 United States

Wystrzelony Dec 28, 2022 z Cape Canaveral Space Force Station

Loading…

Następne Przeloty (najbliższe 24 godziny)

TLE

ŚwieżeSource: CelesTrak SupGP

Epoka: Sep 14, 2026, 21:51 UTC

1 54861C 22177AT  26257.91090278 -.00037217  00000+0 -13482-2 0  2579
2 54861  43.0022 132.6549 0001417 270.2535  74.0543 15.27592729    17

Śledź STARLINK-5400 w czasie rzeczywistym z AllMySat

Download on the App Store